Time,TemperatureF,DewpointF,PressureIn,WindDirection,WindDirectionDegrees,WindSpeedMPH,WindSpeedGustMPH,Humidity,HourlyPrecipIn,Conditions,Clouds,dailyrainin,SoftwareType,DateUTC
2013-09-05 00:00:00,53.1,44.2,31.24,NW,315,3.0,3.0,72,0.00,,,0.00,meteohub,2013-09-05 06:00:00,
2013-09-05 00:05:00,53.1,44.2,31.24,NW,315,3.0,3.0,72,0.00,,,0.00,meteohub,2013-09-05 06:05:00,
2013-09-05 00:10:00,52.9,44.4,31.24,East,90,4.0,4.0,73,0.00,,,0.00,meteohub,2013-09-05 06:10:00,
2013-09-05 00:15:00,52.9,44.1,31.24,North,0,2.0,5.0,72,0.00,,,0.00,meteohub,2013-09-05 06:15:00,
2013-09-05 00:20:00,52.5,43.7,31.24,East,90,3.0,5.0,72,0.00,,,0.00,meteohub,2013-09-05 06:20:00,
2013-09-05 00:25:00,52.3,43.5,31.24,East,90,4.0,5.0,72,0.00,,,0.00,meteohub,2013-09-05 06:25:00,
2013-09-05 00:30:00,52.0,43.5,31.24,NE,45,4.0,4.0,73,0.00,,,0.00,meteohub,2013-09-05 06:30:00,
2013-09-05 00:35:00,51.8,43.3,31.24,NE,45,2.0,4.0,73,0.00,,,0.00,meteohub,2013-09-05 06:35:00,
2013-09-05 00:40:00,51.8,43.7,31.24,North,0,2.0,4.0,74,0.00,,,0.00,meteohub,2013-09-05 06:40:00,
2013-09-05 00:45:00,51.6,43.9,31.24,East,90,0.0,4.0,75,0.00,,,0.00,meteohub,2013-09-05 06:45:00,
2013-09-05 00:50:00,51.4,43.7,31.25,NW,315,2.0,3.0,75,0.00,,,0.00,meteohub,2013-09-05 06:50:00,
2013-09-05 00:55:00,51.3,43.5,31.25,NW,315,2.0,3.0,75,0.00,,,0.00,meteohub,2013-09-05 06:55:00,
2013-09-05 01:00:00,51.3,43.5,31.25,NE,45,3.0,3.0,75,0.00,,,0.00,meteohub,2013-09-05 07:00:00,
2013-09-05 01:05:00,51.1,43.5,31.24,NE,45,3.0,4.0,75,0.00,,,0.00,meteohub,2013-09-05 07:05:00,
2013-09-05 01:10:00,51.1,43.5,31.25,East,90,3.0,4.0,75,0.00,,,0.00,meteohub,2013-09-05 07:10:00,
2013-09-05 01:15:00,50.9,43.3,31.24,NW,315,3.0,3.0,75,0.00,,,0.00,meteohub,2013-09-05 07:15:00,
2013-09-05 01:20:00,50.7,43.5,31.24,NE,45,4.0,4.0,76,0.00,,,0.00,meteohub,2013-09-05 07:20:00,
2013-09-05 01:25:00,50.5,43.5,31.24,East,90,2.0,4.0,77,0.00,,,0.00,meteohub,2013-09-05 07:25:00,
2013-09-05 01:30:00,50.5,43.5,31.24,East,90,2.0,4.0,77,0.00,,,0.00,meteohub,2013-09-05 07:30:00,
2013-09-05 01:35:00,50.4,43.7,31.24,East,90,4.0,4.0,78,0.00,,,0.00,meteohub,2013-09-05 07:35:00,
2013-09-05 01:40:00,50.7,44.4,31.24,NE,45,7.0,7.0,79,0.00,,,0.00,meteohub,2013-09-05 07:40:00,
2013-09-05 01:45:00,51.4,45.1,31.24,NE,45,5.0,7.0,79,0.00,,,0.00,meteohub,2013-09-05 07:45:00,
2013-09-05 01:50:00,52.0,45.3,31.23,NE,45,6.0,8.0,78,0.00,,,0.00,meteohub,2013-09-05 07:50:00,
2013-09-05 01:55:00,52.2,45.1,31.23,NE,45,6.0,8.0,77,0.00,,,0.00,meteohub,2013-09-05 07:55:00,
2013-09-05 02:00:00,52.2,45.1,31.24,North,0,7.0,8.0,77,0.00,,,0.00,meteohub,2013-09-05 08:00:00,
2013-09-05 02:05:00,52.2,45.1,31.23,North,0,7.0,8.0,77,0.00,,,0.00,meteohub,2013-09-05 08:05:00,
2013-09-05 02:11:00,52.7,45.0,31.24,North,0,6.0,8.0,75,0.00,,,0.00,meteohub,2013-09-05 08:11:00,
2013-09-05 02:16:00,52.9,44.8,31.23,NE,45,4.0,7.0,74,0.00,,,0.00,meteohub,2013-09-05 08:16:00,
2013-09-05 02:21:00,53.2,44.8,31.24,East,90,4.0,7.0,73,0.00,,,0.00,meteohub,2013-09-05 08:21:00,
2013-09-05 02:26:00,53.2,44.8,31.24,NE,45,4.0,6.0,73,0.00,,,0.00,meteohub,2013-09-05 08:26:00,
2013-09-05 02:31:00,52.9,44.4,31.24,East,90,3.0,6.0,73,0.00,,,0.00,meteohub,2013-09-05 08:31:00,
2013-09-05 02:36:00,52.5,44.4,31.23,NE,45,2.0,6.0,74,0.00,,,0.00,meteohub,2013-09-05 08:36:00,
2013-09-05 02:41:00,52.5,44.4,31.23,East,90,2.0,4.0,74,0.00,,,0.00,meteohub,2013-09-05 08:41:00,
2013-09-05 02:46:00,52.3,44.2,31.23,ENE,68,2.0,4.0,74,0.00,,,0.00,meteohub,2013-09-05 08:46:00,
2013-09-05 02:51:00,52.0,44.2,31.23,NE,45,5.0,7.0,75,0.00,,,0.00,meteohub,2013-09-05 08:51:00,
2013-09-05 02:56:00,51.8,44.1,31.23,East,90,3.0,7.0,75,0.00,,,0.00,meteohub,2013-09-05 08:56:00,
2013-09-05 03:01:00,51.8,44.1,31.23,East,90,3.0,7.0,75,0.00,,,0.00,meteohub,2013-09-05 09:01:00,
2013-09-05 03:06:00,51.6,44.2,31.23,East,90,4.0,7.0,76,0.00,,,0.00,meteohub,2013-09-05 09:06:00,
2013-09-05 03:11:00,51.3,44.2,31.23,East,90,8.0,8.0,77,0.00,,,0.00,meteohub,2013-09-05 09:11:00,
2013-09-05 03:16:00,51.1,44.1,31.23,East,90,7.0,9.0,77,0.00,,,0.00,meteohub,2013-09-05 09:16:00,
2013-09-05 03:21:00,51.1,44.4,31.23,East,90,8.0,9.0,78,0.00,,,0.00,meteohub,2013-09-05 09:21:00,
2013-09-05 03:26:00,51.1,44.4,31.23,East,90,8.0,9.0,78,0.00,,,0.00,meteohub,2013-09-05 09:26:00,
2013-09-05 03:31:00,51.1,44.1,31.23,NE,45,6.0,8.0,77,0.00,,,0.00,meteohub,2013-09-05 09:31:00,
2013-09-05 03:36:00,51.1,44.1,31.23,East,90,4.0,9.0,77,0.00,,,0.00,meteohub,2013-09-05 09:36:00,
2013-09-05 03:41:00,50.9,43.5,31.23,East,90,2.0,9.0,76,0.00,,,0.00,meteohub,2013-09-05 09:41:00,
2013-09-05 03:46:00,50.5,43.3,31.23,NE,45,2.0,7.0,76,0.00,,,0.00,meteohub,2013-09-05 09:46:00,
2013-09-05 03:51:00,50.2,43.0,31.23,East,90,2.0,4.0,76,0.00,,,0.00,meteohub,2013-09-05 09:51:00,
2013-09-05 03:56:00,49.6,42.8,31.23,NE,45,5.0,5.0,77,0.00,,,0.00,meteohub,2013-09-05 09:56:00,
2013-09-05 04:01:00,49.6,43.0,31.23,East,90,4.0,6.0,78,0.00,,,0.00,meteohub,2013-09-05 10:01:00,
2013-09-05 04:06:00,49.6,43.0,31.23,East,90,4.0,6.0,78,0.00,,,0.00,meteohub,2013-09-05 10:06:00,
2013-09-05 04:11:00,50.4,44.4,31.23,NE,45,4.0,6.0,80,0.00,,,0.00,meteohub,2013-09-05 10:11:00,
2013-09-05 04:16:00,50.4,44.4,31.23,NE,45,4.0,6.0,80,0.00,,,0.00,meteohub,2013-09-05 10:16:00,
2013-09-05 04:21:00,50.4,44.4,31.23,NE,45,6.0,6.0,80,0.00,,,0.00,meteohub,2013-09-05 10:21:00,
2013-09-05 04:26:00,50.4,44.8,31.23,NE,45,4.0,8.0,81,0.00,,,0.00,meteohub,2013-09-05 10:26:00,
2013-09-05 04:31:00,50.5,45.0,31.23,NE,45,7.0,8.0,81,0.00,,,0.00,meteohub,2013-09-05 10:31:00,
2013-09-05 04:36:00,50.7,45.1,31.23,NE,45,7.0,8.0,81,0.00,,,0.00,meteohub,2013-09-05 10:36:00,
2013-09-05 04:41:00,51.1,45.5,31.23,NE,45,5.0,7.0,81,0.00,,,0.00,meteohub,2013-09-05 10:41:00,
2013-09-05 04:46:00,51.3,45.7,31.23,ENE,68,4.0,7.0,81,0.00,,,0.00,meteohub,2013-09-05 10:46:00,
2013-09-05 04:51:00,51.4,45.9,31.23,NE,45,8.0,8.0,81,0.00,,,0.00,meteohub,2013-09-05 10:51:00,
2013-09-05 04:56:00,51.6,46.0,31.23,NE,45,8.0,9.0,81,0.00,,,0.00,meteohub,2013-09-05 10:56:00,
2013-09-05 05:02:00,51.6,45.7,31.23,East,90,6.0,9.0,80,0.00,,,0.00,meteohub,2013-09-05 11:02:00,
2013-09-05 05:07:00,51.6,45.7,31.23,NE,45,6.0,9.0,80,0.00,,,0.00,meteohub,2013-09-05 11:07:00,
2013-09-05 05:12:00,51.6,45.7,31.23,North,0,6.0,8.0,80,0.00,,,0.00,meteohub,2013-09-05 11:12:00,
2013-09-05 05:17:00,51.6,45.7,31.23,East,90,6.0,8.0,80,0.00,,,0.00,meteohub,2013-09-05 11:17:00,
2013-09-05 05:22:00,51.4,45.5,31.23,NE,45,8.0,8.0,80,0.00,,,0.00,meteohub,2013-09-05 11:22:00,
2013-09-05 05:26:00,51.3,45.0,31.23,NE,45,4.0,8.0,79,0.00,,,0.00,meteohub,2013-09-05 11:26:00,
2013-09-05 05:32:00,51.3,45.0,31.23,East,90,7.0,8.0,79,0.00,,,0.00,meteohub,2013-09-05 11:32:00,
2013-09-05 05:37:00,51.3,44.6,31.23,NE,45,5.0,8.0,78,0.00,,,0.00,meteohub,2013-09-05 11:37:00,
2013-09-05 05:42:00,51.1,44.1,31.23,East,90,4.0,7.0,77,0.00,,,0.00,meteohub,2013-09-05 11:42:00,
2013-09-05 05:46:00,50.5,43.5,31.23,NE,45,4.0,7.0,77,0.00,,,0.00,meteohub,2013-09-05 11:46:00,
2013-09-05 05:52:00,50.0,43.2,31.23,NE,45,5.0,5.0,77,0.00,,,0.00,meteohub,2013-09-05 11:52:00,
2013-09-05 05:57:00,49.5,43.2,31.23,East,90,3.0,5.0,79,0.00,,,0.00,meteohub,2013-09-05 11:57:00,
2013-09-05 06:02:00,49.1,43.2,31.24,East,90,2.0,5.0,80,0.00,,,0.00,meteohub,2013-09-05 12:02:00,
2013-09-05 06:07:00,49.1,43.2,31.24,East,90,2.0,5.0,80,0.00,,,0.00,meteohub,2013-09-05 12:07:00,
2013-09-05 06:12:00,47.8,42.6,31.24,East,90,3.0,4.0,82,0.00,,,0.00,meteohub,2013-09-05 12:12:00,
2013-09-05 06:17:00,47.7,42.4,31.24,East,90,4.0,4.0,82,0.00,,,0.00,meteohub,2013-09-05 12:17:00,
2013-09-05 06:22:00,47.5,42.6,31.24,East,90,4.0,4.0,83,0.00,,,0.00,meteohub,2013-09-05 12:22:00,
2013-09-05 06:27:00,47.3,42.4,31.24,NE,45,6.0,6.0,83,0.00,,,0.00,meteohub,2013-09-05 12:27:00,
2013-09-05 06:32:00,48.0,43.3,31.24,NE,45,6.0,8.0,84,0.00,,,0.00,meteohub,2013-09-05 12:32:00,
2013-09-05 06:37:00,48.6,43.7,31.24,ENE,68,7.0,8.0,83,0.00,,,0.00,meteohub,2013-09-05 12:37:00,
2013-09-05 06:42:00,49.1,44.4,31.24,East,90,5.0,8.0,84,0.00,,,0.00,meteohub,2013-09-05 12:42:00,
2013-09-05 06:47:00,49.5,44.8,31.24,East,90,2.0,8.0,84,0.00,,,0.00,meteohub,2013-09-05 12:47:00,
2013-09-05 06:52:00,49.3,44.4,31.24,East,90,4.0,8.0,83,0.00,,,0.00,meteohub,2013-09-05 12:52:00,
2013-09-05 06:57:00,49.3,44.4,31.24,NE,45,4.0,7.0,83,0.00,,,0.00,meteohub,2013-09-05 12:57:00,
2013-09-05 07:02:00,48.9,44.1,31.25,North,0,2.0,5.0,83,0.00,,,0.00,meteohub,2013-09-05 13:02:00,
2013-09-05 07:07:00,49.1,44.2,31.25,West,270,2.0,5.0,83,0.00,,,0.00,meteohub,2013-09-05 13:07:00,
2013-09-05 07:12:00,49.1,44.2,31.24,SW,225,1.0,4.0,83,0.00,,,0.00,meteohub,2013-09-05 13:12:00,
2013-09-05 07:17:00,48.9,44.1,31.25,NW,315,0.0,4.0,83,0.00,,,0.00,meteohub,2013-09-05 13:17:00,
2013-09-05 07:22:00,48.4,43.5,31.25,North,0,2.0,2.0,83,0.00,,,0.00,meteohub,2013-09-05 13:22:00,
2013-09-05 07:27:00,48.2,43.3,31.24,North,0,2.0,2.0,83,0.00,,,0.00,meteohub,2013-09-05 13:27:00,
2013-09-05 07:32:00,48.0,43.3,31.24,NE,45,5.0,5.0,84,0.00,,,0.00,meteohub,2013-09-05 13:32:00,
2013-09-05 07:37:00,48.4,43.5,31.24,East,90,4.0,6.0,83,0.00,,,0.00,meteohub,2013-09-05 13:37:00,
2013-09-05 07:42:00,48.7,43.9,31.25,West,270,2.0,6.0,83,0.00,,,0.00,meteohub,2013-09-05 13:42:00,
2013-09-05 07:47:00,48.7,43.9,31.25,NE,45,7.0,7.0,83,0.00,,,0.00,meteohub,2013-09-05 13:47:00,
2013-09-05 07:52:00,48.9,44.1,31.25,NE,45,4.0,8.0,83,0.00,,,0.00,meteohub,2013-09-05 13:52:00,
2013-09-05 07:57:00,49.1,44.2,31.25,NE,45,4.0,8.0,83,0.00,,,0.00,meteohub,2013-09-05 13:57:00,
2013-09-05 08:02:00,49.1,44.2,31.25,East,90,6.0,8.0,83,0.00,,,0.00,meteohub,2013-09-05 14:02:00,
2013-09-05 08:07:00,49.1,44.2,31.25,East,90,6.0,6.0,83,0.00,,,0.00,meteohub,2013-09-05 14:07:00,
2013-09-05 08:12:00,50.4,44.8,31.25,NE,45,5.0,8.0,81,0.00,,,0.00,meteohub,2013-09-05 14:12:00,
2013-09-05 08:17:00,51.3,45.7,31.26,NE,45,4.0,8.0,81,0.00,,,0.00,meteohub,2013-09-05 14:17:00,
2013-09-05 08:22:00,52.3,46.4,31.25,NE,45,4.0,8.0,80,0.00,,,0.00,meteohub,2013-09-05 14:22:00,
2013-09-05 08:27:00,53.8,47.1,31.25,East,90,4.0,8.0,78,0.00,,,0.00,meteohub,2013-09-05 14:27:00,
2013-09-05 08:32:00,55.0,48.0,31.26,NE,45,3.0,5.0,77,0.00,,,0.00,meteohub,2013-09-05 14:32:00,
2013-09-05 08:37:00,55.8,48.0,31.25,NE,45,2.0,5.0,75,0.00,,,0.00,meteohub,2013-09-05 14:37:00,
2013-09-05 08:41:00,55.8,47.7,31.26,North,0,3.0,4.0,74,0.00,,,0.00,meteohub,2013-09-05 14:41:00,
2013-09-05 08:47:00,55.9,47.5,31.25,East,90,3.0,4.0,73,0.00,,,0.00,meteohub,2013-09-05 14:47:00,
2013-09-05 08:52:00,56.3,47.5,31.25,NE,45,2.0,4.0,72,0.00,,,0.00,meteohub,2013-09-05 14:52:00,
2013-09-05 08:57:00,57.0,48.0,31.25,East,90,1.0,4.0,72,0.00,,,0.00,meteohub,2013-09-05 14:57:00,
2013-09-05 09:02:00,57.9,48.6,31.25,East,90,2.0,4.0,71,0.00,,,0.00,meteohub,2013-09-05 15:02:00,
2013-09-05 09:07:00,59.2,49.1,31.25,NE,45,4.0,4.0,69,0.00,,,0.00,meteohub,2013-09-05 15:07:00,
2013-09-05 09:12:00,59.9,48.6,31.25,NE,45,5.0,5.0,66,0.00,,,0.00,meteohub,2013-09-05 15:12:00,
2013-09-05 09:17:00,60.4,48.2,31.25,East,90,5.0,5.0,64,0.00,,,0.00,meteohub,2013-09-05 15:17:00,
2013-09-05 09:21:00,60.8,48.2,31.25,ESE,113,4.0,5.0,63,0.00,,,0.00,meteohub,2013-09-05 15:21:00,
2013-09-05 09:27:00,60.6,48.7,31.25,East,90,4.0,8.0,65,0.00,,,0.00,meteohub,2013-09-05 15:27:00,
2013-09-05 09:32:00,60.6,48.7,31.25,East,90,4.0,8.0,65,0.00,,,0.00,meteohub,2013-09-05 15:32:00,
2013-09-05 09:37:00,60.6,48.7,31.25,NE,45,4.0,6.0,65,0.00,,,0.00,meteohub,2013-09-05 15:37:00,
2013-09-05 09:42:00,61.0,48.4,31.25,East,90,5.0,5.0,63,0.00,,,0.00,meteohub,2013-09-05 15:42:00,
2013-09-05 09:47:00,61.7,48.9,31.25,SE,135,4.0,6.0,63,0.00,,,0.00,meteohub,2013-09-05 15:47:00,
2013-09-05 09:52:00,62.6,48.9,31.25,East,90,7.0,7.0,61,0.00,,,0.00,meteohub,2013-09-05 15:52:00,
2013-09-05 09:57:00,63.5,49.3,31.25,East,90,6.0,8.0,60,0.00,,,0.00,meteohub,2013-09-05 15:57:00,
2013-09-05 10:02:00,64.0,50.4,31.25,ENE,68,8.0,8.0,61,0.00,,,0.00,meteohub,2013-09-05 16:02:00,
2013-09-05 10:07:00,64.0,50.4,31.25,ENE,68,8.0,8.0,61,0.00,,,0.00,meteohub,2013-09-05 16:07:00,
2013-09-05 10:12:00,63.7,49.1,31.25,SE,135,7.0,9.0,59,0.00,,,0.00,meteohub,2013-09-05 16:12:00,
2013-09-05 10:17:00,63.3,49.6,31.25,East,90,4.0,9.0,61,0.00,,,0.00,meteohub,2013-09-05 16:17:00,
2013-09-05 10:22:00,63.9,50.2,31.25,East,90,4.0,9.0,61,0.00,,,0.00,meteohub,2013-09-05 16:22:00,
2013-09-05 10:27:00,64.6,51.3,31.24,ENE,68,7.0,8.0,62,0.00,,,0.00,meteohub,2013-09-05 16:27:00,
2013-09-05 10:32:00,65.1,51.8,31.24,East,90,7.0,8.0,62,0.00,,,0.00,meteohub,2013-09-05 16:32:00,
2013-09-05 10:37:00,65.5,51.6,31.24,SE,135,5.0,8.0,61,0.00,,,0.00,meteohub,2013-09-05 16:37:00,
2013-09-05 10:42:00,66.4,52.5,31.24,East,90,4.0,8.0,61,0.00,,,0.00,meteohub,2013-09-05 16:42:00,
2013-09-05 10:47:00,67.3,52.9,31.24,East,90,5.0,8.0,60,0.00,,,0.00,meteohub,2013-09-05 16:47:00,
2013-09-05 10:52:00,68.2,52.9,31.24,South,180,4.0,8.0,58,0.00,,,0.00,meteohub,2013-09-05 16:52:00,
2013-09-05 10:57:00,68.9,53.1,31.23,ENE,68,3.0,7.0,57,0.00,,,0.00,meteohub,2013-09-05 16:57:00,
2013-09-05 11:02:00,69.6,53.2,31.23,South,180,2.0,7.0,56,0.00,,,0.00,meteohub,2013-09-05 17:02:00,
2013-09-05 11:07:00,70.3,52.3,31.23,East,90,2.0,5.0,53,0.00,,,0.00,meteohub,2013-09-05 17:07:00,
2013-09-05 11:12:00,71.2,52.7,31.23,South,180,1.0,4.0,52,0.00,,,0.00,meteohub,2013-09-05 17:12:00,
2013-09-05 11:17:00,71.8,51.1,31.23,ENE,68,3.0,3.0,48,0.00,,,0.00,meteohub,2013-09-05 17:17:00,
2013-09-05 11:22:00,72.5,50.5,31.23,West,270,2.0,3.0,46,0.00,,,0.00,meteohub,2013-09-05 17:22:00,
2013-09-05 11:27:00,73.0,51.1,31.22,South,180,2.0,3.0,46,0.00,,,0.00,meteohub,2013-09-05 17:27:00,
2013-09-05 11:32:00,73.4,50.7,31.23,South,180,2.0,3.0,45,0.00,,,0.00,meteohub,2013-09-05 17:32:00,
2013-09-05 11:37:00,73.8,49.8,31.22,NW,315,2.0,3.0,43,0.00,,,0.00,meteohub,2013-09-05 17:37:00,
2013-09-05 11:42:00,74.1,50.2,31.22,West,270,2.0,3.0,43,0.00,,,0.00,meteohub,2013-09-05 17:42:00,
2013-09-05 11:47:00,74.7,50.7,31.22,SE,135,2.0,4.0,43,0.00,,,0.00,meteohub,2013-09-05 17:47:00,
2013-09-05 11:52:00,75.4,51.3,31.22,SE,135,2.0,4.0,43,0.00,,,0.00,meteohub,2013-09-05 17:52:00,
2013-09-05 11:57:00,75.9,48.6,31.22,NW,315,4.0,4.0,38,0.00,,,0.00,meteohub,2013-09-05 17:57:00,
2013-09-05 12:02:00,76.3,50.9,31.21,NW,315,2.0,4.0,41,0.00,,,0.00,meteohub,2013-09-05 18:02:00,
2013-09-05 12:07:00,77.4,46.8,31.22,South,180,3.0,4.0,34,0.00,,,0.00,meteohub,2013-09-05 18:07:00,
2013-09-05 12:12:00,77.7,46.4,31.21,West,270,4.0,4.0,33,0.00,,,0.00,meteohub,2013-09-05 18:12:00,
2013-09-05 12:17:00,77.9,48.0,31.21,SW,225,5.0,6.0,35,0.00,,,0.00,meteohub,2013-09-05 18:17:00,
2013-09-05 12:22:00,77.9,47.3,31.21,South,180,4.0,7.0,34,0.00,,,0.00,meteohub,2013-09-05 18:22:00,
2013-09-05 12:27:00,77.7,47.8,31.21,SW,225,5.0,7.0,35,0.00,,,0.00,meteohub,2013-09-05 18:27:00,
2013-09-05 12:32:00,78.1,48.2,31.21,South,180,2.0,7.0,35,0.00,,,0.00,meteohub,2013-09-05 18:32:00,
2013-09-05 12:37:00,78.3,46.8,31.21,SW,225,7.0,7.0,33,0.00,,,0.00,meteohub,2013-09-05 18:37:00,
2013-09-05 12:42:00,77.9,47.3,31.21,NW,315,6.0,8.0,34,0.00,,,0.00,meteohub,2013-09-05 18:42:00,
2013-09-05 12:48:00,77.9,47.3,31.21,SE,135,4.0,8.0,34,0.00,,,0.00,meteohub,2013-09-05 18:48:00,
2013-09-05 12:53:00,78.8,47.3,31.21,NW,315,6.0,8.0,33,0.00,,,0.00,meteohub,2013-09-05 18:53:00,
2013-09-05 12:58:00,79.3,46.0,31.21,NW,315,5.0,8.0,31,0.00,,,0.00,meteohub,2013-09-05 18:58:00,
2013-09-05 13:03:00,79.9,48.9,31.21,NE,45,5.0,10.0,34,0.00,,,0.00,meteohub,2013-09-05 19:03:00,
2013-09-05 13:08:00,80.6,46.2,31.21,SE,135,4.0,10.0,30,0.00,,,0.00,meteohub,2013-09-05 19:08:00,
2013-09-05 13:13:00,80.4,46.2,31.21,SSE,158,3.0,10.0,30,0.00,,,0.00,meteohub,2013-09-05 19:13:00,
2013-09-05 13:18:00,80.6,46.2,31.20,East,90,4.0,8.0,30,0.00,,,0.00,meteohub,2013-09-05 19:18:00,
2013-09-05 13:23:00,81.3,46.0,31.20,SW,225,6.0,8.0,29,0.00,,,0.00,meteohub,2013-09-05 19:23:00,
2013-09-05 13:28:00,81.5,45.3,31.20,South,180,4.0,7.0,28,0.00,,,0.00,meteohub,2013-09-05 19:28:00,
2013-09-05 13:33:00,81.1,45.9,31.20,South,180,4.0,8.0,29,0.00,,,0.00,meteohub,2013-09-05 19:33:00,
2013-09-05 13:38:00,80.2,45.1,31.20,South,180,3.0,8.0,29,0.00,,,0.00,meteohub,2013-09-05 19:38:00,
2013-09-05 13:43:00,80.1,45.9,31.20,North,0,3.0,8.0,30,0.00,,,0.00,meteohub,2013-09-05 19:43:00,
2013-09-05 13:48:00,80.4,46.9,31.20,SW,225,4.0,7.0,31,0.00,,,0.00,meteohub,2013-09-05 19:48:00,
2013-09-05 13:53:00,81.0,44.8,31.20,SE,135,2.0,7.0,28,0.00,,,0.00,meteohub,2013-09-05 19:53:00,
2013-09-05 13:58:00,81.9,46.4,31.20,South,180,4.0,5.0,29,0.00,,,0.00,meteohub,2013-09-05 19:58:00,
2013-09-05 14:03:00,81.5,45.3,31.19,North,0,3.0,6.0,28,0.00,,,0.00,meteohub,2013-09-05 20:03:00,
2013-09-05 14:08:00,79.0,45.0,31.19,SW,225,2.0,6.0,30,0.00,,,0.00,meteohub,2013-09-05 20:08:00,
2013-09-05 14:13:00,78.3,46.8,31.19,SW,225,3.0,6.0,33,0.00,,,0.00,meteohub,2013-09-05 20:13:00,
2013-09-05 14:18:00,77.9,46.4,31.19,SE,135,2.0,4.0,33,0.00,,,0.00,meteohub,2013-09-05 20:18:00,
2013-09-05 14:23:00,77.5,46.2,31.19,NW,315,2.0,4.0,33,0.00,,,0.00,meteohub,2013-09-05 20:23:00,
2013-09-05 14:28:00,77.0,45.0,31.19,NNW,338,2.0,4.0,32,0.00,,,0.00,meteohub,2013-09-05 20:28:00,
2013-09-05 14:33:00,76.6,46.9,31.19,SW,225,1.0,4.0,35,0.00,,,0.00,meteohub,2013-09-05 20:33:00,
2013-09-05 15:13:00,74.8,48.9,31.19,South,180,2.0,4.0,40,0.00,,,0.00,meteohub,2013-09-05 21:13:00,
2013-09-05 15:18:00,75.4,46.6,31.18,NE,45,1.0,-999.0,36,0.00,,,0.00,meteohub,2013-09-05 21:18:00,
2013-09-05 15:23:00,75.7,47.7,31.18,East,90,2.0,3.0,37,0.00,,,0.00,meteohub,2013-09-05 21:23:00,
2013-09-05 15:28:00,75.7,47.7,31.18,East,90,1.0,3.0,37,0.00,,,0.00,meteohub,2013-09-05 21:28:00,
2013-09-05 15:33:00,75.6,47.5,31.18,East,90,2.0,3.0,37,0.00,,,0.00,meteohub,2013-09-05 21:33:00,
2013-09-05 15:38:00,75.2,45.7,31.18,SW,225,2.0,5.0,35,0.00,,,0.00,meteohub,2013-09-05 21:38:00,
2013-09-05 15:44:00,75.2,47.8,31.18,East,90,2.0,6.0,38,0.00,,,0.00,meteohub,2013-09-05 21:44:00,
2013-09-05 15:49:00,75.4,48.0,31.18,North,0,2.0,6.0,38,0.00,,,0.00,meteohub,2013-09-05 21:49:00,
2013-09-05 15:54:00,76.6,46.9,31.17,NW,315,4.0,6.0,35,0.00,,,0.00,meteohub,2013-09-05 21:54:00,
2013-09-05 15:59:00,77.9,44.8,31.17,South,180,3.0,4.0,31,0.00,,,0.00,meteohub,2013-09-05 21:59:00,
2013-09-05 16:04:00,78.1,44.1,31.17,East,90,3.0,5.0,30,0.00,,,0.00,meteohub,2013-09-05 22:04:00,
2013-09-05 16:09:00,78.6,44.6,31.17,East,90,6.0,6.0,30,0.00,,,0.00,meteohub,2013-09-05 22:09:00,
2013-09-05 16:14:00,78.1,44.1,31.17,SE,135,4.0,5.0,30,0.00,,,0.00,meteohub,2013-09-05 22:14:00,
2013-09-05 16:19:00,77.4,43.5,31.17,East,90,5.0,6.0,30,0.00,,,0.00,meteohub,2013-09-05 22:19:00,
2013-09-05 16:24:00,76.5,44.4,31.17,East,90,4.0,6.0,32,0.00,,,0.00,meteohub,2013-09-05 22:24:00,
2013-09-05 16:29:00,75.7,44.6,31.17,East,90,3.0,6.0,33,0.00,,,0.00,meteohub,2013-09-05 22:29:00,
2013-09-05 16:34:00,75.0,45.5,31.17,East,90,4.0,6.0,35,0.00,,,0.00,meteohub,2013-09-05 22:34:00,
2013-09-05 16:39:00,74.5,45.0,31.17,East,90,2.0,4.0,35,0.00,,,0.00,meteohub,2013-09-05 22:39:00,
2013-09-05 16:44:00,74.1,44.8,31.17,NW,315,2.0,4.0,35,0.00,,,0.00,meteohub,2013-09-05 22:44:00,
2013-09-05 16:49:00,73.6,45.7,31.17,SW,225,4.0,4.0,37,0.00,,,0.00,meteohub,2013-09-05 22:49:00,
2013-09-05 16:54:00,73.0,46.6,31.17,SW,225,4.0,6.0,39,0.00,,,0.00,meteohub,2013-09-05 22:54:00,
2013-09-05 16:59:00,72.5,46.8,31.17,West,270,4.0,6.0,40,0.00,,,0.00,meteohub,2013-09-05 22:59:00,
2013-09-05 17:04:00,71.8,46.2,31.18,South,180,2.0,6.0,40,0.00,,,0.00,meteohub,2013-09-05 23:04:00,
2013-09-05 17:09:00,71.2,46.9,31.18,NW,315,3.0,4.0,42,0.00,,,0.00,meteohub,2013-09-05 23:09:00,
2013-09-05 17:14:00,70.9,46.6,31.18,NW,315,2.0,4.0,42,0.00,,,0.00,meteohub,2013-09-05 23:14:00,
2013-09-05 17:19:00,70.3,46.8,31.18,NW,315,3.0,4.0,43,0.00,,,0.00,meteohub,2013-09-05 23:19:00,
2013-09-05 17:24:00,70.2,47.3,31.18,SW,225,4.0,4.0,44,0.00,,,0.00,meteohub,2013-09-05 23:24:00,
2013-09-05 17:29:00,69.8,46.9,31.18,South,180,4.0,6.0,44,0.00,,,0.00,meteohub,2013-09-05 23:29:00,
2013-09-05 17:34:00,69.4,47.1,31.17,SW,225,4.0,6.0,45,0.00,,,0.00,meteohub,2013-09-05 23:34:00,
2013-09-05 17:39:00,69.1,46.2,31.18,SE,135,5.0,8.0,44,0.00,,,0.00,meteohub,2013-09-05 23:39:00,
2013-09-05 17:44:00,69.1,46.2,31.18,SW,225,4.0,8.0,44,0.00,,,0.00,meteohub,2013-09-05 23:44:00,
2013-09-05 17:49:00,68.9,46.0,31.17,SW,225,2.0,8.0,44,0.00,,,0.00,meteohub,2013-09-05 23:49:00,
2013-09-05 17:54:00,68.9,47.3,31.17,West,270,3.0,7.0,46,0.00,,,0.00,meteohub,2013-09-05 23:54:00,
2013-09-05 17:59:00,68.4,47.3,31.18,NW,315,5.0,5.0,47,0.00,,,0.00,meteohub,2013-09-05 23:59:00,
2013-09-05 18:04:00,68.4,47.3,31.18,NW,315,5.0,5.0,47,0.00,,,0.00,meteohub,2013-09-06 00:04:00,
2013-09-05 18:09:00,67.5,48.2,31.18,SW,225,4.0,5.0,50,0.00,,,0.00,meteohub,2013-09-06 00:09:00,
2013-09-05 18:14:00,66.9,48.2,31.18,NW,315,3.0,5.0,51,0.00,,,0.00,meteohub,2013-09-06 00:14:00,
2013-09-05 18:19:00,66.4,47.7,31.18,West,270,5.0,5.0,51,0.00,,,0.00,meteohub,2013-09-06 00:19:00,
2013-09-05 18:24:00,66.0,48.4,31.18,West,270,5.0,5.0,53,0.00,,,0.00,meteohub,2013-09-06 00:24:00,
2013-09-05 18:29:00,65.7,48.0,31.18,West,270,5.0,7.0,53,0.00,,,0.00,meteohub,2013-09-06 00:29:00,
2013-09-05 18:34:00,65.3,47.7,31.18,NW,315,4.0,7.0,53,0.00,,,0.00,meteohub,2013-09-06 00:34:00,
2013-09-05 18:39:00,65.1,48.0,31.18,SW,225,2.0,8.0,54,0.00,,,0.00,meteohub,2013-09-06 00:39:00,
2013-09-05 18:44:00,64.8,47.7,31.18,West,270,3.0,8.0,54,0.00,,,0.00,meteohub,2013-09-06 00:44:00,
2013-09-05 18:49:00,64.6,47.5,31.18,SE,135,4.0,5.0,54,0.00,,,0.00,meteohub,2013-09-06 00:49:00,
2013-09-05 18:54:00,64.4,47.5,31.18,SW,225,4.0,6.0,54,0.00,,,0.00,meteohub,2013-09-06 00:54:00,
2013-09-05 19:00:00,64.2,47.3,31.18,SW,225,4.0,6.0,54,0.00,,,0.00,meteohub,2013-09-06 01:00:00,
2013-09-05 19:05:00,64.2,47.7,31.19,West,270,3.0,6.0,55,0.00,,,0.00,meteohub,2013-09-06 01:05:00,
2013-09-05 19:10:00,64.0,48.0,31.19,NW,315,6.0,6.0,56,0.00,,,0.00,meteohub,2013-09-06 01:10:00,
2013-09-05 19:15:00,63.9,47.8,31.19,SSW,203,6.0,7.0,56,0.00,,,0.00,meteohub,2013-09-06 01:15:00,
2013-09-05 19:20:00,63.9,47.3,31.19,SW,225,7.0,7.0,55,0.00,,,0.00,meteohub,2013-09-06 01:20:00,
2013-09-05 19:25:00,63.9,47.8,31.19,NW,315,5.0,10.0,56,0.00,,,0.00,meteohub,2013-09-06 01:25:00,
2013-09-05 19:30:00,63.9,47.8,31.20,South,180,4.0,10.0,56,0.00,,,0.00,meteohub,2013-09-06 01:30:00,
2013-09-05 19:35:00,63.5,48.0,31.19,SW,225,4.0,7.0,57,0.00,,,0.00,meteohub,2013-09-06 01:35:00,
2013-09-05 19:40:00,63.1,47.7,31.19,SW,225,4.0,5.0,57,0.00,,,0.00,meteohub,2013-09-06 01:40:00,
2013-09-05 19:45:00,63.0,46.9,31.19,North,0,4.0,5.0,56,0.00,,,0.00,meteohub,2013-09-06 01:45:00,
2013-09-05 19:50:00,63.0,46.6,31.19,SW,225,4.0,5.0,55,0.00,,,0.00,meteohub,2013-09-06 01:50:00,
2013-09-05 19:55:00,63.1,46.8,31.20,SW,225,4.0,5.0,55,0.00,,,0.00,meteohub,2013-09-06 01:55:00,
2013-09-05 20:00:00,63.1,46.8,31.20,SW,225,5.0,5.0,55,0.00,,,0.00,meteohub,2013-09-06 02:00:00,
2013-09-05 20:05:00,63.1,46.8,31.20,SW,225,5.0,5.0,55,0.00,,,0.00,meteohub,2013-09-06 02:05:00,
2013-09-05 20:10:00,63.0,46.9,31.20,NW,315,3.0,5.0,56,0.00,,,0.00,meteohub,2013-09-06 02:10:00,
2013-09-05 20:15:00,62.6,46.8,31.20,North,0,4.0,5.0,56,0.00,,,0.00,meteohub,2013-09-06 02:15:00,
2013-09-05 20:20:00,62.6,46.2,31.21,NW,315,3.0,5.0,55,0.00,,,0.00,meteohub,2013-09-06 02:20:00,
2013-09-05 20:25:00,62.8,46.4,31.21,NW,315,3.0,5.0,55,0.00,,,0.00,meteohub,2013-09-06 02:25:00,
2013-09-05 20:30:00,63.0,46.0,31.22,North,0,4.0,5.0,54,0.00,,,0.00,meteohub,2013-09-06 02:30:00,
2013-09-05 20:35:00,63.1,47.1,31.22,North,0,3.0,8.0,56,0.00,,,0.00,meteohub,2013-09-06 02:35:00,
2013-09-05 20:40:00,63.1,48.2,31.23,East,90,8.0,8.0,58,0.00,,,0.00,meteohub,2013-09-06 02:40:00,
2013-09-05 20:45:00,62.8,48.2,31.22,West,270,5.0,8.0,59,0.00,,,0.00,meteohub,2013-09-06 02:45:00,
2013-09-05 20:50:00,61.9,48.7,31.23,North,0,6.0,8.0,62,0.00,,,0.00,meteohub,2013-09-06 02:50:00,
2013-09-05 20:55:00,60.8,48.6,31.23,NE,45,5.0,8.0,64,0.00,,,0.00,meteohub,2013-09-06 02:55:00,
2013-09-05 21:00:00,60.1,49.5,31.22,ENE,68,4.0,8.0,68,0.00,,,0.00,meteohub,2013-09-06 03:00:00,
2013-09-05 21:05:00,59.5,49.8,31.22,North,0,2.0,6.0,70,0.00,,,0.00,meteohub,2013-09-06 03:05:00,
2013-09-05 21:10:00,59.2,49.5,31.22,East,90,3.0,5.0,70,0.00,,,0.00,meteohub,2013-09-06 03:10:00,
2013-09-05 21:15:00,58.8,49.8,31.22,East,90,3.0,4.0,72,0.00,,,0.00,meteohub,2013-09-06 03:15:00,
2013-09-05 21:20:00,58.5,49.8,31.22,East,90,3.0,3.0,73,0.00,,,0.00,meteohub,2013-09-06 03:20:00,
2013-09-05 21:25:00,58.3,50.0,31.22,NE,45,1.0,4.0,74,0.00,,,0.00,meteohub,2013-09-06 03:25:00,
2013-09-05 21:30:00,58.3,50.0,31.23,North,0,2.0,4.0,74,0.00,,,0.00,meteohub,2013-09-06 03:30:00,
2013-09-05 21:35:00,58.1,50.2,31.23,North,0,2.0,3.0,75,0.00,,,0.00,meteohub,2013-09-06 03:35:00,
2013-09-05 21:40:00,57.7,49.8,31.23,North,0,3.0,4.0,75,0.00,,,0.00,meteohub,2013-09-06 03:40:00,
2013-09-05 21:45:00,57.6,49.6,31.23,North,0,2.0,4.0,75,0.00,,,0.00,meteohub,2013-09-06 03:45:00,
2013-09-05 21:50:00,57.4,49.5,31.23,NW,315,3.0,4.0,75,0.00,,,0.00,meteohub,2013-09-06 03:50:00,
2013-09-05 21:55:00,57.4,49.1,31.23,North,0,3.0,6.0,74,0.00,,,0.00,meteohub,2013-09-06 03:55:00,
2013-09-05 22:00:00,57.2,48.9,31.23,North,0,3.0,6.0,74,0.00,,,0.00,meteohub,2013-09-06 04:00:00,
2013-09-05 22:01:00,57.2,48.9,31.23,North,0,3.0,6.0,74,0.00,,,0.00,meteohub,2013-09-06 04:01:00,
2013-09-05 22:04:00,57.2,48.9,31.23,North,0,3.0,6.0,74,0.00,,,0.00,meteohub,2013-09-06 04:04:00,
2013-09-05 22:09:00,56.7,48.4,31.23,North,0,3.0,6.0,74,0.00,,,0.00,meteohub,2013-09-06 04:09:00,
2013-09-05 22:14:00,56.5,48.4,31.23,North,0,3.0,4.0,74,0.00,,,0.00,meteohub,2013-09-06 04:14:00,
2013-09-05 22:19:00,56.3,48.2,31.22,NW,315,3.0,4.0,74,0.00,,,0.00,meteohub,2013-09-06 04:19:00,
2013-09-05 22:24:00,55.8,48.0,31.22,NNW,338,3.0,4.0,75,0.00,,,0.00,meteohub,2013-09-06 04:24:00,
2013-09-05 22:29:00,55.4,47.7,31.22,NE,45,2.0,3.0,75,0.00,,,0.00,meteohub,2013-09-06 04:29:00,
2013-09-05 22:34:00,55.4,48.0,31.22,NNE,23,2.0,3.0,76,0.00,,,0.00,meteohub,2013-09-06 04:34:00,
2013-09-05 22:39:00,55.4,48.0,31.22,SE,135,2.0,3.0,76,0.00,,,0.00,meteohub,2013-09-06 04:39:00,
2013-09-05 22:44:00,55.2,47.8,31.22,NE,45,3.0,3.0,76,0.00,,,0.00,meteohub,2013-09-06 04:44:00,
2013-09-05 22:49:00,54.9,47.5,31.22,NE,45,3.0,4.0,76,0.00,,,0.00,meteohub,2013-09-06 04:49:00,
2013-09-05 22:54:00,54.7,46.9,31.22,NE,45,4.0,4.0,75,0.00,,,0.00,meteohub,2013-09-06 04:54:00,
2013-09-05 22:59:00,54.5,47.5,31.22,NE,45,4.0,4.0,77,0.00,,,0.00,meteohub,2013-09-06 04:59:00,
2013-09-05 23:04:00,54.3,47.7,31.22,NE,45,2.0,5.0,78,0.00,,,0.00,meteohub,2013-09-06 05:04:00,
2013-09-05 23:09:00,54.3,47.7,31.22,East,90,5.0,5.0,78,0.00,,,0.00,meteohub,2013-09-06 05:09:00,
2013-09-05 23:14:00,54.1,47.5,31.22,East,90,3.0,5.0,78,0.00,,,0.00,meteohub,2013-09-06 05:14:00,
2013-09-05 23:19:00,53.8,47.1,31.23,NE,45,2.0,5.0,78,0.00,,,0.00,meteohub,2013-09-06 05:19:00,
2013-09-05 23:24:00,53.6,47.3,31.22,NE,45,4.0,5.0,79,0.00,,,0.00,meteohub,2013-09-06 05:24:00,
2013-09-05 23:29:00,53.4,47.7,31.22,NE,45,2.0,5.0,81,0.00,,,0.00,meteohub,2013-09-06 05:29:00,
2013-09-05 23:34:00,53.2,47.3,31.22,North,0,0.0,4.0,80,0.00,,,0.00,meteohub,2013-09-06 05:34:00,
2013-09-05 23:39:00,52.9,46.9,31.22,SE,135,0.0,4.0,80,0.00,,,0.00,meteohub,2013-09-06 05:39:00,
2013-09-05 23:44:00,52.3,46.4,31.22,NW,315,2.0,4.0,80,0.00,,,0.00,meteohub,2013-09-06 05:44:00,
2013-09-05 23:49:00,52.2,46.2,31.22,East,90,3.0,3.0,80,0.00,,,0.00,meteohub,2013-09-06 05:49:00,
2013-09-05 23:54:00,51.8,45.5,31.22,East,90,5.0,5.0,79,0.00,,,0.00,meteohub,2013-09-06 05:54:00,
2013-09-05 23:59:00,51.8,45.5,31.21,East,90,5.0,5.0,79,0.00,,,0.00,meteohub,2013-09-06 05:59:00,